スワン-星明彗星

C/2015 F5 ( SWAN-Xingming )

English version
Home page
Updated on May 29, 2016

---------------------------------------------------------------------

・ プロフィール

発見日 2015年3月29日、4月4日
発見光度 12.7等
発見者 Szymon Liwo (Swidnica, Poland), Worachate Boonplod (Samut Songkhram, Thailand), Guoyou Sun and Xing Gao (Xingming sky survey)

・ 写真集

・ 軌道要素

Epoch 2015 Apr. 8.0 TT = JDT 2457120.5
T 2015 Mar. 28.09968 TT                                 MPCW
q   0.3460061            (2000.0)            P               Q
n   0.01606669     Peri.   13.39318     +0.10678110     -0.86691337
a  15.5543446      Node   287.73903     -0.95284471     -0.22911781
e   0.9777550      Incl.  149.25673     -0.28405061     +0.44268074
P  61.3
From 187 observations 2015 Apr. 5-May 18, mean residual 0".8.

・ 星図

・ 光度変化

        m1 = 13.0 + 5 logΔ + 10.0 log r

---------------------------------------------------------------------

軌道要素はM.P.E.C. 2015-N31に掲載されたものです。
星図はステラナビゲータ Ver.8 (アストロアーツ) で作成したものです。
光度グラフはComet for Windowsで作成したものです。

---------------------------------------------------------------------

Copyright(C) Seiichi Yoshida (comet@aerith.net). All rights reserved.